| time (UTC) | temp F | wind direction | speed knots | gust knots | rain 1hr in | rain 24hr in | rain mn in | humidity % | barometer mb |
| 20260906215355 | 73 | 69 | 3.5 | 7.8 | 0.00 | 0.00 | 0.00 | 63 | 1019.0 |
| 20260906214831 | 73 | 96 | 1.7 | 5.2 | 0.00 | 0.00 | 0.00 | 62 | 1019.1 |
| 20260906214523 | 72 | 111 | 1.7 | 6.1 | 0.00 | 0.00 | 0.00 | 62 | 1018.2 |
| 20260906214346 | 73 | 39 | 1.7 | 6.1 | 0.00 | 0.00 | 0.00 | 63 | 1019.0 |
| 20260906213845 | 73 | 96 | 3.5 | 8.7 | 0.00 | 0.00 | 0.00 | 63 | 1019.0 |
| 20260906213331 | 73 | 23 | 3.5 | 8.7 | 0.00 | 0.00 | 0.00 | 62 | 1019.0 |
| 20260906213047 | 72 | 34 | 1.7 | 8.7 | 0.00 | 0.00 | 0.00 | 61 | 1018.2 |
| 20260906212848 | 73 | 48 | 3.5 | 8.7 | 0.00 | 0.00 | 0.00 | 61 | 1019.1 |
| 20260906212341 | 73 | 112 | 3.5 | 7.8 | 0.00 | 0.00 | 0.00 | 61 | 1019.1 |
| 20260906211848 | 73 | 72 | 3.5 | 9.6 | 0.00 | 0.00 | 0.00 | 62 | 1019.1 |
| 20260906211521 | 73 | 43 | 2.6 | 9.6 | 0.00 | 0.00 | 0.00 | 62 | 1018.2 |
| 20260906211345 | 73 | 93 | 3.5 | 9.6 | 0.00 | 0.00 | 0.00 | 61 | 1019.1 |
| 20260906210843 | 74 | 92 | 1.7 | 7.0 | 0.00 | 0.00 | 0.00 | 63 | 1019.1 |
| 20260906210340 | 74 | 102 | 2.6 | 5.2 | 0.00 | 0.00 | 0.00 | 61 | 1019.1 |
| 20260906210039 | 73 | 52 | 1.7 | 5.2 | 0.00 | 0.00 | 0.00 | 61 | 1018.3 |
| 20260906205902 | 74 | 58 | 1.7 | 6.1 | 0.00 | 0.00 | 0.00 | 60 | 1019.2 |
| 20260906205357 | 74 | 109 | 2.6 | 7.8 | 0.00 | 0.00 | 0.00 | 63 | 1019.2 |
| 20260906204829 | 74 | 43 | 1.7 | 7.8 | 0.00 | 0.00 | 0.00 | 64 | 1019.2 |
| 20260906204523 | 74 | 106 | 1.7 | 7.8 | 0.00 | 0.00 | 0.00 | 65 | 1018.3 |
| 20260906204345 | 74 | 37 | 2.6 | 7.8 | 0.00 | 0.00 | 0.00 | 64 | 1019.2 |
| 20260906203914 | 74 | 59 | 3.5 | 10.4 | 0.00 | 0.00 | 0.00 | 64 | 1019.2 |
| 20260906203410 | 75 | 335 | 1.7 | 10.4 | 0.00 | 0.00 | 0.00 | 64 | 1019.1 |
| 20260906203041 | 74 | 50 | 1.7 | 7.8 | 0.00 | 0.00 | 0.00 | 63 | 1018.2 |
| 20260906202845 | 74 | 77 | 0.9 | 7.8 | 0.00 | 0.00 | 0.00 | 64 | 1019.1 |
| 20260906202342 | 73 | 67 | 3.5 | 7.8 | 0.00 | 0.00 | 0.00 | 66 | 1019.1 |
| 20260906201837 | 73 | 64 | 4.3 | 7.8 | 0.00 | 0.00 | 0.00 | 67 | 1019.1 |
| 20260906201609 | 73 | 345 | 2.6 | 8.7 | 0.00 | 0.00 | 0.00 | 66 | 1018.1 |
| 20260906201333 | 74 | 52 | 3.5 | 8.7 | 0.00 | 0.00 | 0.00 | 65 | 1019.0 |
| 20260906200846 | 74 | 31 | 1.7 | 10.4 | 0.00 | 0.00 | 0.00 | 67 | 1019.1 |
| 20260906200331 | 72 | 33 | 2.6 | 13.0 | 0.00 | 0.00 | 0.00 | 68 | 1019.1 |
| 20260906200025 | 72 | 50 | 4.3 | 13.0 | 0.00 | 0.00 | 0.00 | 66 | 1018.3 |
| 20260906195843 | 73 | 63 | 5.2 | 13.0 | 0.00 | 0.00 | 0.00 | 66 | 1019.1 |
| 20260906195334 | 74 | 67 | 3.5 | 9.6 | 0.00 | 0.00 | 0.00 | 64 | 1019.0 |
| 20260906194846 | 74 | 53 | 5.2 | 9.6 | 0.00 | 0.00 | 0.00 | 66 | 1019.0 |
| 20260906194531 | 73 | 45 | 4.3 | 10.4 | 0.00 | 0.00 | 0.00 | 65 | 1018.0 |
| 20260906194342 | 74 | 110 | 3.5 | 12.2 | 0.00 | 0.00 | 0.00 | 66 | 1019.1 |
| 20260906193849 | 74 | 18 | 6.1 | 12.2 | 0.00 | 0.00 | 0.00 | 64 | 1019.0 |
| 20260906193344 | 76 | 350 | 3.5 | 9.6 | 0.00 | 0.00 | 0.00 | 65 | 1019.0 |
| 20260906193008 | 75 | 77 | 3.5 | 9.6 | 0.00 | 0.00 | 0.00 | 63 | 1018.0 |
| 20260906192841 | 75 | 23 | 4.3 | 10.4 | 0.00 | 0.00 | 0.00 | 64 | 1019.0 |
| 20260906192336 | 75 | 23 | 2.6 | 10.4 | 0.00 | 0.00 | 0.00 | 64 | 1019.0 |
| 20260906191832 | 75 | 42 | 2.6 | 7.8 | 0.00 | 0.00 | 0.00 | 65 | 1019.0 |
| 20260906191515 | 74 | 75 | 3.5 | 9.6 | 0.00 | 0.00 | 0.00 | 64 | 1018.0 |
| 20260906191346 | 75 | 125 | 2.6 | 9.6 | 0.00 | 0.00 | 0.00 | 64 | 1019.0 |
| 20260906190843 | 75 | 27 | 0.9 | 7.8 | 0.00 | 0.00 | 0.00 | 66 | 1019.0 |
| 20260906190355 | 74 | 75 | 1.7 | 9.6 | 0.00 | 0.00 | 0.00 | 66 | 1019.1 |
| 20260906190015 | 74 | 59 | 4.3 | 9.6 | 0.00 | 0.00 | 0.00 | 65 | 1018.1 |
| 20260906185849 | 74 | 9 | 4.3 | 9.6 | 0.00 | 0.00 | 0.00 | 64 | 1019.0 |
| 20260906185342 | 74 | 38 | 2.6 | 7.8 | 0.00 | 0.00 | 0.00 | 65 | 1019.0 |
| 20260906184838 | 74 | 23 | 1.7 | 9.6 | 0.00 | 0.00 | 0.00 | 65 | 1019.0 |
| 20260906184512 | 72 | 23 | 2.6 | 10.4 | 0.00 | 0.00 | 0.00 | 68 | 1018.0 |
| 20260906184336 | 72 | 40 | 1.7 | 10.4 | 0.00 | 0.00 | 0.00 | 69 | 1019.0 |
| 20260906183850 | 73 | 69 | 4.3 | 10.4 | 0.00 | 0.00 | 0.00 | 67 | 1019.0 |
| 20260906183348 | 73 | 5 | 1.7 | 5.2 | 0.00 | 0.00 | 0.00 | 67 | 1019.0 |
| 20260906183018 | 73 | 357 | 0.9 | 8.7 | 0.00 | 0.00 | 0.00 | 65 | 1018.2 |
| 20260906182843 | 74 | 49 | 0.9 | 8.7 | 0.00 | 0.00 | 0.00 | 66 | 1019.1 |
| 20260906182406 | 74 | 44 | 3.5 | 8.7 | 0.00 | 0.00 | 0.00 | 65 | 1019.1 |
| 20260906181856 | 73 | 125 | 1.7 | 8.7 | 0.00 | 0.00 | 0.00 | 67 | 1019.0 |
| 20260906181542 | 73 | 18 | 3.5 | 7.8 | 0.00 | 0.00 | 0.00 | 66 | 1018.1 |
| 20260906181351 | 74 | 37 | 1.7 | 7.8 | 0.00 | 0.00 | 0.00 | 66 | 1019.1 |
| 20260906180847 | 74 | 59 | 0.9 | 11.3 | 0.00 | 0.00 | 0.00 | 67 | 1019.1 |
| 20260906180344 | 74 | 32 | 2.6 | 11.3 | 0.00 | 0.00 | 0.00 | 67 | 1019.1 |
| 20260906180109 | 73 | 82 | 2.6 | 7.8 | 0.00 | 0.00 | 0.00 | 65 | 1018.1 |
| 20260906175859 | 74 | 42 | 3.5 | 9.6 | 0.00 | 0.00 | 0.00 | 66 | 1019.1 |
| 20260906175333 | 75 | 23 | 4.3 | 9.6 | 0.00 | 0.00 | 0.00 | 64 | 1019.0 |
| 20260906174849 | 75 | 45 | 2.6 | 9.6 | 0.00 | 0.00 | 0.00 | 63 | 1019.2 |
| 20260906174556 | 74 | 61 | 1.7 | 9.6 | 0.00 | 0.00 | 0.00 | 67 | 1018.2 |
| 20260906174507 | 73 | 27 | 1.7 | 9.6 | 0.00 | 0.00 | 0.00 | 66 | 1018.2 |
| 20260906174344 | 74 | 1 | 3.5 | 9.6 | 0.00 | 0.00 | 0.00 | 66 | 1019.1 |
| 20260906173835 | 74 | 18 | 3.5 | 8.7 | 0.00 | 0.00 | 0.00 | 66 | 1019.1 |
| 20260906173352 | 74 | 33 | 3.5 | 8.7 | 0.00 | 0.00 | 0.00 | 66 | 1019.1 |
| 20260906173003 | 73 | 46 | 2.6 | 11.3 | 0.00 | 0.00 | 0.00 | 66 | 1018.2 |
| 20260906172906 | 74 | 54 | 3.5 | 11.3 | 0.00 | 0.00 | 0.00 | 67 | 1019.1 |
| 20260906172339 | 74 | 60 | 5.2 | 11.3 | 0.00 | 0.00 | 0.00 | 66 | 1019.1 |
| 20260906171902 | 73 | 13 | 3.5 | 10.4 | 0.00 | 0.00 | 0.00 | 68 | 1019.1 |
| 20260906171536 | 73 | 23 | 3.5 | 10.4 | 0.00 | 0.00 | 0.00 | 67 | 1018.2 |
| 20260906171339 | 74 | 52 | 6.1 | 10.4 | 0.00 | 0.00 | 0.00 | 66 | 1019.2 |
| 20260906170902 | 75 | 54 | 4.3 | 8.7 | 0.00 | 0.00 | 0.00 | 65 | 1019.1 |
| 20260906170337 | 75 | 82 | 0.9 | 6.1 | 0.00 | 0.00 | 0.00 | 67 | 1019.2 |
| 20260906170100 | 73 | 50 | 0.9 | 9.6 | 0.00 | 0.00 | 0.00 | 69 | 1018.2 |
| 20260906165848 | 73 | 54 | 1.7 | 10.4 | 0.00 | 0.00 | 0.00 | 69 | 1019.1 |
| 20260906165403 | 73 | 23 | 5.2 | 10.4 | 0.00 | 0.00 | 0.00 | 68 | 1019.2 |
| 20260906164848 | 74 | 18 | 1.7 | 8.7 | 0.00 | 0.00 | 0.00 | 68 | 1019.2 |
| 20260906164533 | 73 | 69 | 1.7 | 9.6 | 0.00 | 0.00 | 0.00 | 69 | 1018.3 |
| 20260906164345 | 73 | 68 | 3.5 | 9.6 | 0.00 | 0.00 | 0.00 | 69 | 1019.2 |
| 20260906163841 | 73 | 34 | 2.6 | 9.6 | 0.00 | 0.00 | 0.00 | 71 | 1019.2 |
| 20260906163335 | 73 | 41 | 5.2 | 9.6 | 0.00 | 0.00 | 0.00 | 69 | 1019.2 |
| 20260906163037 | 74 | 90 | 2.6 | 9.6 | 0.00 | 0.00 | 0.00 | 67 | 1018.3 |
| 20260906162849 | 74 | 27 | 2.6 | 9.6 | 0.00 | 0.00 | 0.00 | 69 | 1019.3 |
| 20260906162342 | 74 | 44 | 3.5 | 9.6 | 0.00 | 0.00 | 0.00 | 68 | 1019.3 |
| 20260906161855 | 73 | 148 | 2.6 | 10.4 | 0.00 | 0.00 | 0.00 | 70 | 1019.3 |
| 20260906161553 | 72 | 42 | 2.6 | 10.4 | 0.00 | 0.00 | 0.00 | 70 | 1018.4 |
| 20260906161349 | 73 | 78 | 2.6 | 10.4 | 0.00 | 0.00 | 0.00 | 70 | 1019.3 |
| 20260906160845 | 73 | 35 | 3.5 | 10.4 | 0.00 | 0.00 | 0.00 | 71 | 1019.2 |
| 20260906160401 | 72 | 40 | 4.3 | 11.3 | 0.00 | 0.00 | 0.00 | 70 | 1019.3 |
| 20260906160014 | 72 | 87 | 2.6 | 10.4 | 0.00 | 0.00 | 0.00 | 71 | 1018.4 |
| 20260906155837 | 72 | 64 | 3.5 | 10.4 | 0.00 | 0.00 | 0.00 | 72 | 1019.3 |
| 20260906155334 | 73 | 119 | 5.2 | 10.4 | 0.00 | 0.00 | 0.00 | 72 | 1019.4 |
| 20260906154848 | 74 | 23 | 3.5 | 12.2 | 0.00 | 0.00 | 0.00 | 70 | 1019.4 |
| 20260906154520 | 73 | 47 | 3.5 | 12.2 | 0.00 | 0.00 | 0.00 | 70 | 1018.4 |
| 20260906154413 | 73 | 43 | 3.5 | 12.2 | 0.00 | 0.00 | 0.00 | 72 | 1019.3 |
| 20260906153828 | 72 | 227 | 3.5 | 8.7 | 0.00 | 0.00 | 0.00 | 74 | 1019.3 |
| 20260906153340 | 71 | 109 | 1.7 | 7.0 | 0.00 | 0.00 | 0.00 | 77 | 1019.2 |
| 20260906153016 | 70 | 8 | 1.7 | 8.7 | 0.00 | 0.00 | 0.00 | 75 | 1018.4 |
| 20260906152838 | 71 | 355 | 2.6 | 8.7 | 0.00 | 0.00 | 0.00 | 75 | 1019.3 |
| 20260906152335 | 72 | 30 | 4.3 | 8.7 | 0.00 | 0.00 | 0.00 | 73 | 1019.3 |
| 20260906151850 | 72 | 55 | 2.6 | 7.8 | 0.00 | 0.00 | 0.00 | 73 | 1019.2 |
| 20260906151512 | 71 | 9 | 0.9 | 7.8 | 0.00 | 0.00 | 0.00 | 76 | 1018.3 |
| 20260906151405 | 71 | 34 | 0.9 | 7.8 | 0.00 | 0.00 | 0.00 | 77 | 1019.3 |
| 20260906150841 | 70 | 36 | 2.6 | 7.8 | 0.00 | 0.00 | 0.00 | 77 | 1019.2 |
| 20260906150338 | 70 | 64 | 0.9 | 7.8 | 0.00 | 0.00 | 0.00 | 78 | 1019.2 |
| 20260906150004 | 70 | 344 | 0.0 | 8.7 | 0.00 | 0.00 | 0.00 | 80 | 1018.2 |
| 20260906145835 | 70 | 73 | 0.9 | 8.7 | 0.00 | 0.00 | 0.00 | 80 | 1019.1 |
| 20260906145352 | 69 | 81 | 2.6 | 8.7 | 0.00 | 0.00 | 0.00 | 79 | 1019.1 |
| 20260906144849 | 70 | 58 | 0.9 | 8.7 | 0.00 | 0.00 | 0.00 | 78 | 1019.1 |
| 20260906144510 | 70 | 106 | 1.7 | 8.7 | 0.00 | 0.00 | 0.00 | 77 | 1018.2 |
| 20260906144340 | 70 | 88 | 2.6 | 8.7 | 0.00 | 0.00 | 0.00 | 78 | 1019.1 |
| 20260906143836 | 70 | 113 | 2.6 | 7.8 | 0.00 | 0.00 | 0.00 | 79 | 1019.0 |
| 20260906143332 | 69 | 53 | 2.6 | 7.0 | 0.00 | 0.00 | 0.00 | 80 | 1019.0 |
| 20260906143019 | 69 | 96 | 1.7 | 7.0 | 0.00 | 0.00 | 0.00 | 80 | 1018.1 |
| 20260906142848 | 70 | 37 | 1.7 | 7.0 | 0.00 | 0.00 | 0.00 | 81 | 1019.1 |
| 20260906142402 | 69 | 49 | 1.7 | 8.7 | 0.00 | 0.00 | 0.00 | 82 | 1019.0 |
| 20260906141855 | 70 | 45 | 4.3 | 9.6 | 0.00 | 0.00 | 0.00 | 79 | 1019.0 |
| 20260906141538 | 70 | 38 | 4.3 | 10.4 | 0.00 | 0.00 | 0.00 | 79 | 1018.1 |
| 20260906141350 | 71 | 62 | 4.3 | 10.4 | 0.00 | 0.00 | 0.00 | 79 | 1019.0 |
| 20260906140845 | 70 | 96 | 1.7 | 11.3 | 0.00 | 0.00 | 0.00 | 80 | 1018.9 |
| 20260906140358 | 70 | 91 | 4.3 | 11.3 | 0.00 | 0.00 | 0.00 | 81 | 1018.9 |
| 20260906140029 | 69 | 69 | 2.6 | 8.7 | 0.00 | 0.00 | 0.00 | 82 | 1017.9 |
| 20260906135833 | 69 | 114 | 3.5 | 8.7 | 0.00 | 0.00 | 0.00 | 83 | 1018.9 |
| 20260906135349 | 68 | 63 | 4.3 | 8.7 | 0.00 | 0.00 | 0.00 | 83 | 1018.9 |
| 20260906134845 | 68 | 35 | 1.7 | 6.1 | 0.00 | 0.00 | 0.00 | 84 | 1018.9 |
| 20260906134558 | 68 | 27 | 1.7 | 7.8 | 0.00 | 0.00 | 0.00 | 84 | 1017.9 |
| 20260906134348 | 68 | 18 | 1.7 | 7.8 | 0.00 | 0.00 | 0.00 | 84 | 1018.9 |
| 20260906133844 | 68 | 44 | 1.7 | 7.8 | 0.00 | 0.00 | 0.00 | 84 | 1018.8 |
| 20260906133338 | 68 | 58 | 3.5 | 8.7 | 0.00 | 0.00 | 0.00 | 84 | 1018.8 |
| 20260906133059 | 68 | 55 | 2.6 | 8.7 | 0.00 | 0.00 | 0.00 | 84 | 1017.8 |
| 20260906132853 | 69 | 43 | 2.6 | 8.7 | 0.00 | 0.00 | 0.00 | 85 | 1018.8 |
| 20260906132347 | 68 | 40 | 2.6 | 8.7 | 0.00 | 0.00 | 0.00 | 86 | 1018.7 |
| 20260906131859 | 68 | 5 | 1.7 | 8.7 | 0.00 | 0.00 | 0.00 | 87 | 1018.7 |
| 20260906131548 | 67 | 54 | 1.7 | 9.6 | 0.00 | 0.00 | 0.00 | 87 | 1017.8 |
| 20260906131333 | 68 | 71 | 1.7 | 10.4 | 0.00 | 0.00 | 0.00 | 87 | 1018.6 |
| 20260906130848 | 68 | 102 | 3.5 | 10.4 | 0.00 | 0.00 | 0.00 | 87 | 1018.7 |
| 20260906130345 | 68 | 13 | 1.7 | 7.0 | 0.00 | 0.00 | 0.00 | 88 | 1018.7 |
| 20260906130053 | 67 | 46 | 2.6 | 7.0 | 0.00 | 0.00 | 0.00 | 89 | 1017.9 |
| 20260906125840 | 67 | 30 | 2.6 | 5.2 | 0.00 | 0.00 | 0.00 | 90 | 1018.7 |
| 20260906125402 | 67 | 1 | 0.9 | 7.0 | 0.00 | 0.00 | 0.00 | 91 | 1018.7 |
| 20260906124837 | 66 | 23 | 0.9 | 7.0 | 0.00 | 0.00 | 0.00 | 91 | 1018.6 |
| 20260906124547 | 66 | 94 | 0.0 | 3.5 | 0.00 | 0.00 | 0.00 | 92 | 1017.7 |
| 20260906124333 | 66 | 91 | 0.9 | 3.5 | 0.00 | 0.00 | 0.00 | 92 | 1018.6 |
| 20260906123849 | 66 | 97 | 0.9 | 3.5 | 0.00 | 0.00 | 0.00 | 92 | 1018.5 |
| 20260906123345 | 65 | 38 | 0.0 | 0.9 | 0.00 | 0.00 | 0.00 | 93 | 1018.6 |
| 20260906123034 | 65 | 37 | 0.0 | 0.9 | 0.00 | 0.00 | 0.00 | 93 | 1017.7 |
| 20260906122828 | 65 | 37 | 0.0 | 0.9 | 0.00 | 0.00 | 0.00 | 93 | 1018.6 |
| 20260906122410 | 65 | 37 | 0.0 | 0.0 | 0.00 | 0.00 | 0.00 | 94 | 1018.5 |
| 20260906121845 | 64 | 37 | 0.0 | 0.0 | 0.00 | 0.00 | 0.00 | 95 | 1018.4 |
| 20260906121532 | 63 | 37 | 0.0 | 0.0 | 0.00 | 0.00 | 0.00 | 95 | 1017.5 |
| 20260906121352 | 63 | 37 | 0.0 | 0.0 | 0.00 | 0.00 | 0.00 | 95 | 1018.4 |
| 20260906120847 | 62 | 37 | 0.0 | 0.0 | 0.00 | 0.00 | 0.00 | 95 | 1018.4 |
| 20260906120340 | 62 | 37 | 0.0 | 0.0 | 0.00 | 0.00 | 0.00 | 96 | 1018.4 |
| 20260906120039 | 61 | 37 | 0.0 | 0.0 | 0.00 | 0.00 | 0.00 | 96 | 1017.5 |
| 20260906115836 | 61 | 37 | 0.0 | 0.0 | 0.00 | 0.00 | 0.00 | 96 | 1018.3 |
| 20260906115350 | 60 | 37 | 0.0 | 0.0 | 0.00 | 0.00 | 0.00 | 96 | 1018.3 |
| 20260906114846 | 59 | 37 | 0.0 | 0.0 | 0.00 | 0.00 | 0.00 | 96 | 1018.2 |
| 20260906114515 | 58 | 37 | 0.0 | 0.0 | 0.00 | 0.00 | 0.00 | 96 | 1017.3 |
| 20260906114347 | 59 | 37 | 0.0 | 0.0 | 0.00 | 0.00 | 0.00 | 95 | 1018.2 |
| 20260906113843 | 58 | 37 | 0.0 | 0.0 | 0.00 | 0.00 | 0.00 | 95 | 1018.2 |
| 20260906113340 | 58 | 37 | 0.0 | 0.0 | 0.00 | 0.00 | 0.00 | 95 | 1018.1 |
| 20260906113023 | 57 | 37 | 0.0 | 0.0 | 0.00 | 0.00 | 0.00 | 95 | 1017.3 |
| 20260906112837 | 57 | 37 | 0.0 | 0.0 | 0.00 | 0.00 | 0.00 | 95 | 1018.1 |
| 20260906112335 | 57 | 37 | 0.0 | 0.0 | 0.00 | 0.00 | 0.00 | 95 | 1018.0 |
| 20260906111850 | 57 | 37 | 0.0 | 0.0 | 0.00 | 0.00 | 0.00 | 95 | 1018.0 |
| 20260906111530 | 56 | 37 | 0.0 | 0.0 | 0.00 | 0.00 | 0.00 | 95 | 1017.2 |
| 20260906111348 | 57 | 37 | 0.0 | 0.0 | 0.00 | 0.00 | 0.00 | 95 | 1018.0 |
| 20260906110844 | 57 | 37 | 0.0 | 0.0 | 0.00 | 0.00 | 0.00 | 94 | 1017.9 |
| 20260906110340 | 57 | 37 | 0.0 | 0.0 | 0.00 | 0.00 | 0.00 | 94 | 1017.7 |
| 20260906110033 | 56 | 37 | 0.0 | 0.0 | 0.00 | 0.00 | 0.00 | 95 | 1016.8 |
| 20260906105854 | 57 | 37 | 0.0 | 0.0 | 0.00 | 0.00 | 0.00 | 94 | 1017.7 |
| 20260906105343 | 57 | 37 | 0.0 | 0.0 | 0.00 | 0.00 | 0.00 | 95 | 1017.7 |
| 20260906104840 | 57 | 37 | 0.0 | 0.0 | 0.00 | 0.00 | 0.00 | 94 | 1017.6 |
| 20260906104539 | 57 | 37 | 0.0 | 0.0 | 0.00 | 0.00 | 0.00 | 94 | 1016.7 |
| 20260906104345 | 57 | 37 | 0.0 | 0.0 | 0.00 | 0.00 | 0.00 | 94 | 1017.6 |
| 20260906103851 | 57 | 37 | 0.0 | 0.0 | 0.00 | 0.00 | 0.00 | 94 | 1017.5 |
| 20260906103347 | 57 | 37 | 0.0 | 0.0 | 0.00 | 0.00 | 0.00 | 94 | 1017.5 |
| 20260906103013 | 57 | 37 | 0.0 | 0.0 | 0.00 | 0.00 | 0.00 | 94 | 1016.6 |
| 20260906102845 | 57 | 37 | 0.0 | 0.0 | 0.00 | 0.00 | 0.00 | 94 | 1017.4 |
| 20260906102342 | 58 | 37 | 0.0 | 0.0 | 0.00 | 0.00 | 0.00 | 94 | 1017.4 |
| 20260906101906 | 58 | 37 | 0.0 | 0.0 | 0.00 | 0.00 | 0.00 | 94 | 1017.3 |
| 20260906101527 | 57 | 37 | 0.0 | 0.0 | 0.00 | 0.00 | 0.00 | 94 | 1016.5 |
| 20260906101331 | 58 | 37 | 0.0 | 0.0 | 0.00 | 0.00 | 0.00 | 94 | 1017.3 |
| 20260906100841 | 58 | 37 | 0.0 | 0.0 | 0.00 | 0.00 | 0.00 | 94 | 1017.2 |
| 20260906100349 | 58 | 37 | 0.0 | 0.0 | 0.00 | 0.00 | 0.00 | 94 | 1017.2 |
| 20260906100057 | 58 | 37 | 0.0 | 0.0 | 0.00 | 0.00 | 0.00 | 94 | 1016.4 |
| 20260906095906 | 58 | 37 | 0.0 | 0.0 | 0.00 | 0.00 | 0.00 | 94 | 1017.2 |
| 20260906095342 | 58 | 37 | 0.0 | 0.0 | 0.00 | 0.00 | 0.00 | 94 | 1017.2 |
| 20260906094837 | 59 | 37 | 0.0 | 0.0 | 0.00 | 0.00 | 0.00 | 94 | 1017.2 |
| 20260906094523 | 58 | 37 | 0.0 | 0.0 | 0.00 | 0.00 | 0.00 | 94 | 1016.3 |
| 20260906094342 | 59 | 37 | 0.0 | 0.0 | 0.00 | 0.00 | 0.00 | 94 | 1017.2 |
| 20260906093837 | 59 | 37 | 0.0 | 0.0 | 0.00 | 0.00 | 0.00 | 94 | 1017.1 |
| 20260906093352 | 59 | 37 | 0.0 | 0.0 | 0.00 | 0.00 | 0.00 | 94 | 1017.0 |
| 20260906093029 | 59 | 37 | 0.0 | 0.0 | 0.00 | 0.00 | 0.00 | 94 | 1016.1 |
| 20260906092848 | 59 | 37 | 0.0 | 0.0 | 0.00 | 0.00 | 0.00 | 94 | 1017.0 |
| 20260906092340 | 59 | 37 | 0.0 | 0.0 | 0.00 | 0.00 | 0.00 | 94 | 1016.9 |
| 20260906091847 | 59 | 37 | 0.0 | 0.0 | 0.00 | 0.00 | 0.00 | 94 | 1016.9 |
| 20260906091505 | 59 | 37 | 0.0 | 0.0 | 0.00 | 0.00 | 0.00 | 94 | 1015.9 |
| 20260906091344 | 59 | 37 | 0.0 | 0.0 | 0.00 | 0.00 | 0.00 | 94 | 1016.8 |
| 20260906090840 | 59 | 37 | 0.0 | 0.0 | 0.00 | 0.00 | 0.00 | 94 | 1016.7 |
| 20260906090337 | 59 | 37 | 0.0 | 0.9 | 0.00 | 0.00 | 0.00 | 94 | 1016.8 |
| 20260906090013 | 59 | 37 | 0.0 | 0.9 | 0.00 | 0.00 | 0.00 | 94 | 1015.9 |
| 20260906085834 | 59 | 37 | 0.0 | 0.9 | 0.00 | 0.00 | 0.00 | 94 | 1016.7 |
| 20260906085349 | 60 | 37 | 0.0 | 0.9 | 0.00 | 0.00 | 0.00 | 94 | 1016.6 |
| 20260906084842 | 60 | 37 | 0.0 | 0.0 | 0.00 | 0.00 | 0.00 | 94 | 1016.6 |
| 20260906084517 | 60 | 37 | 0.0 | 0.9 | 0.00 | 0.00 | 0.00 | 94 | 1015.6 |
| 20260906084339 | 60 | 37 | 0.0 | 0.9 | 0.00 | 0.00 | 0.00 | 94 | 1016.5 |
| 20260906083837 | 60 | 37 | 0.0 | 0.9 | 0.00 | 0.00 | 0.00 | 94 | 1016.5 |
| 20260906083331 | 60 | 37 | 0.0 | 1.7 | 0.00 | 0.00 | 0.00 | 93 | 1016.4 |
| 20260906083030 | 60 | 37 | 0.9 | 1.7 | 0.00 | 0.00 | 0.00 | 93 | 1015.4 |
| 20260906082842 | 61 | 37 | 1.7 | 1.7 | 0.00 | 0.00 | 0.00 | 93 | 1016.2 |
| 20260906082347 | 61 | 37 | 0.9 | 1.7 | 0.00 | 0.00 | 0.00 | 93 | 1016.1 |
| 20260906081844 | 61 | 37 | 0.0 | 0.0 | 0.00 | 0.00 | 0.00 | 93 | 1016.2 |
| 20260906081549 | 60 | 37 | 0.0 | 0.0 | 0.00 | 0.00 | 0.00 | 93 | 1015.2 |
| 20260906081338 | 61 | 37 | 0.0 | 0.0 | 0.00 | 0.00 | 0.00 | 93 | 1016.1 |
| 20260906080833 | 61 | 37 | 0.0 | 0.0 | 0.00 | 0.00 | 0.00 | 93 | 1016.1 |
| 20260906080328 | 61 | 37 | 0.0 | 0.0 | 0.00 | 0.00 | 0.00 | 93 | 1016.2 |
| 20260906080055 | 61 | 37 | 0.0 | 0.0 | 0.00 | 0.00 | 0.00 | 93 | 1015.2 |
| 20260906075900 | 61 | 37 | 0.0 | 0.0 | 0.00 | 0.00 | 0.00 | 93 | 1016.0 |
| 20260906075335 | 62 | 37 | 0.0 | 0.0 | 0.00 | 0.00 | 0.00 | 93 | 1016.2 |
| 20260906074845 | 62 | 37 | 0.0 | 0.0 | 0.00 | 0.00 | 0.00 | 93 | 1016.1 |
| 20260906074547 | 61 | 37 | 0.0 | 0.0 | 0.00 | 0.00 | 0.00 | 93 | 1015.2 |
| 20260906074342 | 62 | 37 | 0.0 | 0.0 | 0.00 | 0.00 | 0.00 | 93 | 1016.1 |
| 20260906073838 | 62 | 37 | 0.0 | 0.0 | 0.00 | 0.00 | 0.00 | 93 | 1016.0 |
| 20260906073352 | 62 | 37 | 0.0 | 0.0 | 0.00 | 0.00 | 0.00 | 93 | 1016.1 |
| 20260906073054 | 62 | 37 | 0.0 | 0.0 | 0.00 | 0.00 | 0.00 | 93 | 1015.1 |
| 20260906072906 | 62 | 37 | 0.0 | 0.0 | 0.00 | 0.00 | 0.00 | 93 | 1016.0 |
| 20260906072330 | 62 | 37 | 0.0 | 0.0 | 0.00 | 0.00 | 0.00 | 93 | 1016.0 |
| 20260906071843 | 62 | 37 | 0.0 | 0.0 | 0.00 | 0.00 | 0.00 | 93 | 1016.0 |
| 20260906071505 | 62 | 37 | 0.0 | 0.0 | 0.00 | 0.00 | 0.00 | 93 | 1015.2 |
| 20260906071337 | 62 | 37 | 0.0 | 0.0 | 0.00 | 0.00 | 0.00 | 93 | 1016.1 |
| 20260906070833 | 62 | 37 | 0.0 | 0.0 | 0.00 | 0.00 | 0.00 | 93 | 1016.0 |
| 20260906070345 | 62 | 37 | 0.0 | 0.0 | 0.00 | 0.00 | 0.00 | 93 | 1016.0 |
| 20260906070009 | 62 | 37 | 0.0 | 0.0 | 0.00 | 0.00 | 0.00 | 93 | 1015.2 |
| 20260906065840 | 62 | 37 | 0.0 | 0.0 | 0.00 | 0.00 | 0.00 | 93 | 1016.2 |
| 20260906065347 | 62 | 37 | 0.0 | 0.9 | 0.00 | 0.00 | 0.00 | 92 | 1016.2 |
| 20260906064843 | 62 | 37 | 0.0 | 2.6 | 0.00 | 0.00 | 0.00 | 92 | 1016.3 |
| 20260906064537 | 62 | 37 | 0.0 | 2.6 | 0.00 | 0.00 | 0.00 | 92 | 1015.4 |
| 20260906064338 | 62 | 37 | 0.9 | 2.6 | 0.00 | 0.00 | 0.00 | 92 | 1016.3 |
| 20260906063902 | 62 | 37 | 0.0 | 0.0 | 0.00 | 0.00 | 0.00 | 92 | 1016.2 |
| 20260906063337 | 62 | 37 | 0.0 | 0.0 | 0.00 | 0.00 | 0.00 | 92 | 1016.1 |
| 20260906063026 | 62 | 37 | 0.0 | 0.0 | 0.00 | 0.00 | 0.00 | 92 | 1015.2 |
| 20260906062853 | 62 | 37 | 0.0 | 0.0 | 0.00 | 0.00 | 0.00 | 92 | 1016.1 |
| 20260906062327 | 62 | 37 | 0.0 | 0.0 | 0.00 | 0.00 | 0.00 | 92 | 1016.2 |
| 20260906061839 | 62 | 37 | 0.0 | 0.0 | 0.00 | 0.00 | 0.00 | 92 | 1016.2 |
| 20260906061502 | 62 | 37 | 0.0 | 0.9 | 0.00 | 0.00 | 0.00 | 92 | 1015.3 |
| 20260906061356 | 62 | 37 | 0.0 | 0.9 | 0.00 | 0.00 | 0.00 | 92 | 1016.2 |
| 20260906060911 | 62 | 37 | 0.0 | 0.9 | 0.00 | 0.00 | 0.00 | 92 | 1016.2 |
| 20260906060345 | 62 | 37 | 0.0 | 0.9 | 0.00 | 0.00 | 0.00 | 92 | 1016.1 |
| 20260906060013 | 62 | 37 | 0.0 | 0.9 | 0.00 | 0.00 | 0.00 | 92 | 1015.1 |
| 20260906055849 | 62 | 37 | 0.0 | 0.0 | 0.00 | 0.00 | 0.00 | 92 | 1016.1 |
| 20260906055342 | 62 | 37 | 0.0 | 0.0 | 0.00 | 0.00 | 0.00 | 92 | 1016.2 |
| 20260906054854 | 63 | 37 | 0.0 | 0.0 | 0.00 | 0.00 | 0.00 | 92 | 1016.3 |
| 20260906054558 | 62 | 37 | 0.0 | 0.0 | 0.00 | 0.00 | 0.00 | 92 | 1015.3 |
| 20260906054330 | 62 | 37 | 0.0 | 0.0 | 0.00 | 0.00 | 0.00 | 92 | 1016.2 |
| 20260906053839 | 62 | 37 | 0.0 | 0.0 | 0.00 | 0.00 | 0.00 | 92 | 1016.3 |
| 20260906053334 | 62 | 37 | 0.0 | 0.9 | 0.00 | 0.00 | 0.00 | 92 | 1016.1 |
| 20260906053108 | 62 | 37 | 0.0 | 0.9 | 0.00 | 0.00 | 0.00 | 92 | 1015.2 |
| 20260906053008 | 62 | 37 | 0.0 | 0.9 | 0.00 | 0.00 | 0.00 | 92 | 1015.2 |
| 20260906052849 | 62 | 37 | 0.0 | 0.9 | 0.00 | 0.00 | 0.00 | 92 | 1016.2 |
| 20260906052344 | 63 | 37 | 0.0 | 0.0 | 0.00 | 0.00 | 0.00 | 92 | 1016.1 |
| 20260906051829 | 63 | 37 | 0.0 | 0.9 | 0.00 | 0.00 | 0.00 | 92 | 1016.2 |
| 20260906051537 | 62 | 37 | 0.0 | 0.9 | 0.00 | 0.00 | 0.00 | 92 | 1015.2 |
| 20260906051354 | 63 | 37 | 0.0 | 0.9 | 0.00 | 0.00 | 0.00 | 92 | 1016.2 |
| 20260906050829 | 63 | 37 | 0.0 | 0.0 | 0.00 | 0.00 | 0.00 | 92 | 1016.1 |
| 20260906050346 | 63 | 37 | 0.0 | 0.0 | 0.00 | 0.00 | 0.00 | 92 | 1016.1 |
| 20260906050011 | 62 | 37 | 0.0 | 0.0 | 0.00 | 0.00 | 0.00 | 92 | 1015.1 |
| 20260906045831 | 63 | 37 | 0.0 | 0.0 | 0.00 | 0.00 | 0.00 | 92 | 1016.0 |
| 20260906045346 | 63 | 37 | 0.0 | 0.0 | 0.00 | 0.00 | 0.00 | 92 | 1016.0 |
| 20260906044837 | 63 | 37 | 0.0 | 0.0 | 0.00 | 0.00 | 0.00 | 92 | 1015.9 |
| 20260906044515 | 62 | 37 | 0.0 | 0.0 | 0.00 | 0.00 | 0.00 | 92 | 1015.1 |
| 20260906044352 | 63 | 37 | 0.0 | 0.0 | 0.00 | 0.00 | 0.00 | 92 | 1016.0 |
| 20260906043910 | 63 | 37 | 0.0 | 0.0 | 0.00 | 0.00 | 0.00 | 91 | 1016.0 |
| 20260906043343 | 63 | 37 | 0.0 | 0.0 | 0.00 | 0.00 | 0.00 | 91 | 1016.0 |
| 20260906043001 | 62 | 37 | 0.0 | 0.0 | 0.00 | 0.00 | 0.00 | 91 | 1015.1 |
| 20260906042841 | 63 | 37 | 0.0 | 0.0 | 0.00 | 0.00 | 0.00 | 91 | 1016.0 |
| 20260906042337 | 63 | 37 | 0.0 | 0.0 | 0.00 | 0.00 | 0.00 | 91 | 1015.9 |
| 20260906041832 | 63 | 37 | 0.0 | 0.0 | 0.00 | 0.00 | 0.00 | 91 | 1015.9 |
| 20260906041511 | 63 | 37 | 0.0 | 0.0 | 0.00 | 0.00 | 0.00 | 91 | 1015.0 |
| 20260906041347 | 63 | 37 | 0.0 | 0.0 | 0.00 | 0.00 | 0.00 | 92 | 1015.9 |
| 20260906040843 | 63 | 37 | 0.0 | 0.0 | 0.00 | 0.00 | 0.00 | 91 | 1015.9 |
| 20260906040340 | 63 | 37 | 0.0 | 0.0 | 0.00 | 0.00 | 0.00 | 91 | 1015.9 |
| 20260906040027 | 62 | 37 | 0.0 | 0.0 | 0.00 | 0.00 | 0.00 | 91 | 1015.0 |
| 20260906035834 | 63 | 37 | 0.0 | 0.0 | 0.00 | 0.00 | 0.00 | 91 | 1015.9 |
| 20260906035349 | 63 | 37 | 0.0 | 0.0 | 0.00 | 0.00 | 0.00 | 91 | 1015.8 |
| 20260906034847 | 63 | 37 | 0.0 | 0.0 | 0.00 | 0.00 | 0.00 | 91 | 1015.9 |
| 20260906034526 | 63 | 37 | 0.0 | 0.0 | 0.00 | 0.00 | 0.00 | 91 | 1015.0 |
| 20260906034344 | 63 | 37 | 0.0 | 0.0 | 0.00 | 0.00 | 0.00 | 91 | 1015.9 |
| 20260906033842 | 63 | 37 | 0.0 | 0.0 | 0.00 | 0.00 | 0.00 | 91 | 1015.8 |
| 20260906033405 | 63 | 37 | 0.0 | 0.0 | 0.00 | 0.00 | 0.00 | 91 | 1015.8 |
| 20260906033025 | 63 | 37 | 0.0 | 0.9 | 0.00 | 0.00 | 0.00 | 91 | 1014.9 |
| 20260906032840 | 63 | 37 | 0.0 | 0.9 | 0.00 | 0.00 | 0.00 | 91 | 1015.8 |
| 20260906032337 | 63 | 37 | 0.0 | 0.9 | 0.00 | 0.00 | 0.00 | 91 | 1015.7 |
| 20260906031829 | 63 | 37 | 0.0 | 0.0 | 0.00 | 0.00 | 0.00 | 91 | 1015.6 |
| 20260906031526 | 62 | 37 | 0.0 | 0.0 | 0.00 | 0.00 | 0.00 | 91 | 1014.7 |
| 20260906031345 | 63 | 37 | 0.0 | 0.0 | 0.00 | 0.00 | 0.00 | 90 | 1015.6 |
| 20260906030847 | 63 | 37 | 0.0 | 0.0 | 0.00 | 0.00 | 0.00 | 90 | 1015.6 |
| 20260906030342 | 63 | 37 | 0.0 | 0.9 | 0.00 | 0.00 | 0.00 | 90 | 1015.5 |
| 20260906030053 | 62 | 37 | 0.0 | 0.9 | 0.00 | 0.00 | 0.00 | 90 | 1014.7 |
| 20260906025840 | 63 | 37 | 0.0 | 0.0 | 0.00 | 0.00 | 0.00 | 90 | 1015.5 |
| 20260906025335 | 63 | 37 | 0.0 | 0.0 | 0.00 | 0.00 | 0.00 | 90 | 1015.5 |
| 20260906024829 | 63 | 37 | 0.0 | 0.0 | 0.00 | 0.00 | 0.00 | 90 | 1015.6 |
| 20260906024546 | 63 | 37 | 0.0 | 0.0 | 0.00 | 0.00 | 0.00 | 90 | 1014.6 |
| 20260906024355 | 63 | 37 | 0.0 | 0.0 | 0.00 | 0.00 | 0.00 | 90 | 1015.5 |
| 20260906023851 | 63 | 37 | 0.0 | 0.0 | 0.00 | 0.00 | 0.00 | 90 | 1015.5 |
| 20260906023327 | 63 | 37 | 0.0 | 0.0 | 0.00 | 0.00 | 0.00 | 90 | 1015.5 |
| 20260906023051 | 62 | 37 | 0.0 | 0.0 | 0.00 | 0.00 | 0.00 | 90 | 1014.6 |
| 20260906022843 | 63 | 37 | 0.0 | 0.0 | 0.00 | 0.00 | 0.00 | 90 | 1015.5 |
| 20260906022346 | 63 | 37 | 0.0 | 0.0 | 0.00 | 0.00 | 0.00 | 90 | 1015.6 |
| 20260906021842 | 63 | 37 | 0.0 | 0.0 | 0.00 | 0.00 | 0.00 | 89 | 1015.5 |
| 20260906021522 | 62 | 37 | 0.0 | 0.0 | 0.00 | 0.00 | 0.00 | 89 | 1014.7 |
| 20260906021336 | 63 | 37 | 0.0 | 0.0 | 0.00 | 0.00 | 0.00 | 89 | 1015.6 |
| 20260906020847 | 63 | 37 | 0.0 | 0.0 | 0.00 | 0.00 | 0.00 | 89 | 1015.5 |
| 20260906020344 | 63 | 37 | 0.0 | 0.0 | 0.00 | 0.00 | 0.00 | 89 | 1015.4 |
| 20260906020031 | 62 | 37 | 0.0 | 0.0 | 0.00 | 0.00 | 0.00 | 88 | 1014.6 |
| 20260906015839 | 63 | 37 | 0.0 | 0.0 | 0.00 | 0.00 | 0.00 | 88 | 1015.5 |
| 20260906015404 | 63 | 37 | 0.0 | 0.0 | 0.00 | 0.00 | 0.00 | 88 | 1015.4 |
| 20260906014829 | 63 | 37 | 0.0 | 0.0 | 0.00 | 0.00 | 0.00 | 88 | 1015.4 |
| 20260906014545 | 63 | 37 | 0.0 | 0.0 | 0.00 | 0.00 | 0.00 | 88 | 1014.5 |
| 20260906014345 | 63 | 37 | 0.0 | 0.0 | 0.00 | 0.00 | 0.00 | 88 | 1015.4 |
| 20260906013846 | 63 | 37 | 0.0 | 0.0 | 0.00 | 0.00 | 0.00 | 87 | 1015.4 |
| 20260906013340 | 63 | 37 | 0.0 | 0.0 | 0.00 | 0.00 | 0.00 | 87 | 1015.4 |
| 20260906013056 | 63 | 37 | 0.0 | 0.9 | 0.00 | 0.00 | 0.00 | 86 | 1014.4 |
| 20260906012846 | 63 | 37 | 0.0 | 0.9 | 0.00 | 0.00 | 0.00 | 86 | 1015.3 |
| 20260906012350 | 64 | 37 | 0.0 | 0.9 | 0.00 | 0.00 | 0.00 | 86 | 1015.3 |
| 20260906011913 | 64 | 37 | 0.0 | 0.0 | 0.00 | 0.00 | 0.00 | 86 | 1015.2 |
| 20260906011547 | 64 | 37 | 0.0 | 0.0 | 0.00 | 0.00 | 0.00 | 85 | 1014.3 |
| 20260906011327 | 64 | 37 | 0.0 | 0.0 | 0.00 | 0.00 | 0.00 | 85 | 1015.2 |
| 20260906010842 | 65 | 37 | 0.0 | 0.0 | 0.00 | 0.00 | 0.00 | 85 | 1015.1 |
| 20260906010337 | 65 | 37 | 0.0 | 0.0 | 0.00 | 0.00 | 0.00 | 84 | 1015.0 |
| 20260906010042 | 64 | 37 | 0.0 | 0.0 | 0.00 | 0.00 | 0.00 | 84 | 1014.0 |
| 20260906005847 | 65 | 37 | 0.0 | 0.0 | 0.00 | 0.00 | 0.00 | 84 | 1014.9 |
| 20260906005403 | 65 | 37 | 0.0 | 0.0 | 0.00 | 0.00 | 0.00 | 84 | 1015.0 |
| 20260906004827 | 65 | 37 | 0.0 | 0.0 | 0.00 | 0.00 | 0.00 | 83 | 1015.1 |
| 20260906004523 | 65 | 37 | 0.0 | 0.0 | 0.00 | 0.00 | 0.00 | 82 | 1014.0 |
| 20260906004341 | 66 | 37 | 0.0 | 0.0 | 0.00 | 0.00 | 0.00 | 82 | 1015.0 |
| 20260906003837 | 66 | 37 | 0.0 | 0.0 | 0.00 | 0.00 | 0.00 | 82 | 1015.0 |
| 20260906003351 | 67 | 37 | 0.0 | 0.0 | 0.00 | 0.00 | 0.00 | 81 | 1015.0 |
| 20260906003027 | 67 | 37 | 0.0 | 0.0 | 0.00 | 0.00 | 0.00 | 80 | 1014.0 |
| 20260906002842 | 67 | 37 | 0.0 | 0.0 | 0.00 | 0.00 | 0.00 | 80 | 1014.9 |
| 20260906002328 | 68 | 37 | 0.0 | 0.0 | 0.00 | 0.00 | 0.00 | 80 | 1015.0 |
| 20260906001909 | 68 | 37 | 0.0 | 0.0 | 0.00 | 0.00 | 0.00 | 79 | 1015.0 |
| 20260906001550 | 67 | 37 | 0.0 | 0.0 | 0.00 | 0.00 | 0.00 | 77 | 1013.9 |
| 20260906001345 | 68 | 37 | 0.0 | 0.0 | 0.00 | 0.00 | 0.00 | 77 | 1015.0 |
| 20260906000841 | 68 | 37 | 0.0 | 0.0 | 0.00 | 0.00 | 0.00 | 76 | 1014.9 |
| 20260906000345 | 69 | 37 | 0.0 | 0.0 | 0.00 | 0.00 | 0.00 | 76 | 1014.8 |
| 20260906000053 | 69 | 37 | 0.0 | 0.0 | 0.00 | 0.00 | 0.00 | 75 | 1013.8 |
| 20260905235831 | 70 | 37 | 0.0 | 0.0 | 0.00 | 0.00 | 0.00 | 75 | 1014.7 |
| 20260905235347 | 70 | 37 | 0.0 | 0.0 | 0.00 | 0.00 | 0.00 | 75 | 1014.7 |
| 20260905234841 | 70 | 37 | 0.0 | 0.0 | 0.00 | 0.00 | 0.00 | 73 | 1014.8 |
| 20260905234550 | 70 | 37 | 0.0 | 0.0 | 0.00 | 0.00 | 0.00 | 73 | 1013.9 |
| 20260905234336 | 70 | 37 | 0.0 | 0.0 | 0.00 | 0.00 | 0.00 | 73 | 1014.9 |
| 20260905233829 | 71 | 37 | 0.0 | 0.0 | 0.00 | 0.00 | 0.00 | 72 | 1014.9 |
| 20260905233351 | 71 | 37 | 0.0 | 0.0 | 0.00 | 0.00 | 0.00 | 72 | 1014.9 |
| 20260905233000 | 71 | 37 | 0.0 | 0.9 | 0.00 | 0.00 | 0.00 | 71 | 1014.0 |
| 20260905232905 | 72 | 37 | 0.0 | 0.9 | 0.00 | 0.00 | 0.00 | 71 | 1015.0 |
| 20260905232409 | 72 | 37 | 0.0 | 1.7 | 0.00 | 0.00 | 0.00 | 69 | 1014.9 |
| 20260905231842 | 72 | 37 | 0.0 | 1.7 | 0.00 | 0.00 | 0.00 | 69 | 1014.9 |
| 20260905231556 | 72 | 37 | 0.0 | 1.7 | 0.00 | 0.00 | 0.00 | 67 | 1013.9 |
| 20260905231407 | 73 | 39 | 0.0 | 1.7 | 0.00 | 0.00 | 0.00 | 67 | 1014.9 |
| 20260905230840 | 73 | 40 | 0.0 | 2.6 | 0.00 | 0.00 | 0.00 | 66 | 1014.9 |
| 20260905230333 | 73 | 33 | 0.9 | 2.6 | 0.00 | 0.00 | 0.00 | 65 | 1014.9 |
| 20260905230043 | 73 | 23 | 0.0 | 2.6 | 0.00 | 0.00 | 0.00 | 65 | 1013.9 |
| 20260905225846 | 73 | 23 | 0.0 | 2.6 | 0.00 | 0.00 | 0.00 | 64 | 1014.9 |
| 20260905225343 | 74 | 6 | 0.9 | 3.5 | 0.00 | 0.00 | 0.00 | 63 | 1014.9 |
| 20260905224846 | 74 | 18 | 0.9 | 3.5 | 0.00 | 0.00 | 0.00 | 63 | 1014.8 |
| 20260905224513 | 74 | 54 | 0.9 | 5.2 | 0.00 | 0.00 | 0.00 | 62 | 1013.9 |
| 20260905224343 | 74 | 44 | 0.9 | 5.2 | 0.00 | 0.00 | 0.00 | 62 | 1014.8 |
| 20260905223848 | 75 | 34 | 1.7 | 5.2 | 0.00 | 0.00 | 0.00 | 62 | 1014.8 |
| 20260905223343 | 75 | 66 | 2.6 | 5.2 | 0.00 | 0.00 | 0.00 | 62 | 1014.8 |
| 20260905223041 | 75 | 74 | 0.9 | 3.5 | 0.00 | 0.00 | 0.00 | 61 | 1013.8 |
| 20260905222859 | 75 | 35 | 1.7 | 4.3 | 0.00 | 0.00 | 0.00 | 61 | 1014.8 |
| 20260905222403 | 76 | 55 | 0.9 | 5.2 | 0.00 | 0.00 | 0.00 | 60 | 1014.9 |
| 20260905221838 | 76 | 58 | 0.9 | 4.3 | 0.00 | 0.00 | 0.00 | 61 | 1014.9 |
| 20260905221511 | 75 | 29 | 0.9 | 4.3 | 0.00 | 0.00 | 0.00 | 61 | 1013.9 |
| 20260905221349 | 76 | 29 | 1.7 | 4.3 | 0.00 | 0.00 | 0.00 | 60 | 1014.9 |
| 20260905220903 | 76 | 13 | 1.7 | 5.2 | 0.00 | 0.00 | 0.00 | 59 | 1014.8 |
| 20260905220337 | 76 | 358 | 1.7 | 5.2 | 0.00 | 0.00 | 0.00 | 59 | 1014.8 |
| 20260905220051 | 75 | 42 | 1.7 | 4.3 | 0.00 | 0.00 | 0.00 | 59 | 1013.8 |
| 20260905215852 | 76 | 35 | 1.7 | 4.3 | 0.00 | 0.00 | 0.00 | 59 | 1014.8 |